Tracking 30415 objects as of 15-May-2025
HD Live streaming from Space Station
objects crossing your sky now

STARLINK-3253

Track STARLINK-3253 now!
10-day predictions
STARLINK-3253 is classified as:


NORAD ID: 51136
Int'l Code: 2022-005AJ
Perigee: 546.1 km
Apogee: 547.7 km
Inclination: 53.2 °
Period: 95.4 minutes
Semi major axis: 6917 km
RCS: Unknown
Launch date: January 19, 2022
Source: United States (US)
Launch site: AIR FORCE EASTERN TEST RANGE (AFETR)
Your satellite tracking list
Your tracking list is empty




NASA's NSSDC Master Catalog

Two Line Element Set (TLE):
1 51136U 22005AJ  25134.43649832  .00000100  00000-0  24378-4 0  9998
2 51136  53.2164 202.3167 0001181  87.2871 272.8256 15.08842384183551
Source of the keplerian elements: AFSPC